Location: Waco, TX
(31.5480°N, 97.1670°W)
Time: 09:23:53
(UTC-05:00)

ISS - Pass Details

Date: 24 May 2017
Orbit: 402 x 409 km, 51.6° (Epoch: 25 May)

Event Time Altitude Azimuth Distance (km) Brightness Sun altitude
Rises 04:20:41 0° 334° (NNW) 2,322 0.3 -22.9°
Reaches altitude 10° 04:23:51 10° 8° (N) 1,458 -0.3 -22.4°
Maximum altitude 04:25:12 12° 32° (NNE) 1,344 -0.2 -22.2°
Drops below altitude 10° 04:26:31 10° 56° (NE) 1,454 0.1 -22.0°
Sets 04:29:40 0° 90° (E) 2,308 0.7 -21.5°
